owner,sensor,date,latitude,longitude,vertical_datum,wind_speed,wind_to_direction,wind_speed_of_gust,qcFlag 
DISL,ioos:station:DISL:DISL:1,2019-05-01T00:40:00Z,30.2513,-88.0778,9.68,6.16,126.2,-9999.0,'11111222,11111222,99999222' 
DISL,ioos:station:DISL:DISL:1,2019-05-01T01:40:00Z,30.2513,-88.0778,9.68,4.77,143.5,-9999.0,'11111222,11111222,99999222' 
DISL,ioos:station:DISL:DISL:1,2019-05-01T02:40:00Z,30.2513,-88.0778,9.68,5.59,146.1,-9999.0,'11111222,11111222,99999222' 
DISL,ioos:station:DISL:DISL:1,2019-05-01T03:40:00Z,30.2513,-88.0778,9.68,5.93,134.7,-9999.0,'11111222,11111222,99999222' 
DISL,ioos:station:DISL:DISL:1,2019-05-01T04:40:00Z,30.2513,-88.0778,9.68,5.04,135.6,-9999.0,'11111222,11111222,99999222' 
DISL,ioos:station:DISL:DISL:1,2019-05-01T06:10:00Z,30.2513,-88.0778,9.68,6.25,139.6,-9999.0,'11111222,11111222,99999222' 
DISL,ioos:station:DISL:DISL:1,2019-05-01T06:40:00Z,30.2513,-88.0778,9.68,5.29,148.2,-9999.0,'11111222,11111222,99999222' 
DISL,ioos:station:DISL:DISL:1,2019-05-01T07:40:00Z,30.2513,-88.0778,9.68,4.28,145.5,-9999.0,'11111222,11111222,99999222' 
DISL,ioos:station:DISL:DISL:1,2019-05-01T08:40:00Z,30.2513,-88.0778,9.68,4.03,141.0,-9999.0,'11111222,11111222,99999222' 
DISL,ioos:station:DISL:DISL:1,2019-05-01T09:40:00Z,30.2513,-88.0778,9.68,3.83,141.3,-9999.0,'11111222,11111222,99999222' 
DISL,ioos:station:DISL:DISL:1,2019-05-01T10:40:00Z,30.2513,-88.0778,9.68,3.45,129.4,-9999.0,'11111222,11111222,99999222' 
DISL,ioos:station:DISL:DISL:1,2019-05-01T11:40:00Z,30.2513,-88.0778,9.68,3.07,126.9,-9999.0,'11111222,11111222,99999222' 
DISL,ioos:station:DISL:DISL:1,2019-05-01T12:40:00Z,30.2513,-88.0778,9.68,4.35,121.4,-9999.0,'11111222,11111222,99999222' 
DISL,ioos:station:DISL:DISL:1,2019-05-01T13:40:00Z,30.2513,-88.0778,9.68,4.76,119.4,-9999.0,'11111222,11111222,99999222' 
DISL,ioos:station:DISL:DISL:1,2019-05-01T14:40:00Z,30.2513,-88.0778,9.68,3.48,122.0,-9999.0,'11111222,11111222,99999222' 
DISL,ioos:station:DISL:DISL:1,2019-05-01T15:40:00Z,30.2513,-88.0778,9.68,4.77,123.2,-9999.0,'11111222,11111222,99999222' 
DISL,ioos:station:DISL:DISL:1,2019-05-01T16:40:00Z,30.2513,-88.0778,9.68,4.71,121.0,-9999.0,'11111222,11111222,99999222' 
DISL,ioos:station:DISL:DISL:1,2019-05-01T17:40:00Z,30.2513,-88.0778,9.68,4.54,120.6,-9999.0,'11111222,11111222,99999222' 
DISL,ioos:station:DISL:DISL:1,2019-05-01T18:40:00Z,30.2513,-88.0778,9.68,4.29,122.3,-9999.0,'11111222,11111222,99999222' 
DISL,ioos:station:DISL:DISL:1,2019-05-01T19:40:00Z,30.2513,-88.0778,9.68,4.73,120.6,-9999.0,'11111222,11111222,99999222' 
DISL,ioos:station:DISL:DISL:1,2019-05-01T20:40:00Z,30.2513,-88.0778,9.68,5.58,127.0,-9999.0,'11111222,11111222,99999222' 
DISL,ioos:station:DISL:DISL:1,2019-05-01T21:40:00Z,30.2513,-88.0778,9.68,5.22,128.7,-9999.0,'11111222,11111222,99999222' 
DISL,ioos:station:DISL:DISL:1,2019-05-01T22:40:00Z,30.2513,-88.0778,9.68,3.66,132.3,-9999.0,'11111222,11111222,99999222' 
DISL,ioos:station:DISL:DISL:1,2019-05-01T23:40:00Z,30.2513,-88.0778,9.68,4.25,127.7,-9999.0,'11111222,11111222,99999222' 
DISL,ioos:station:DISL:DISL:1,2019-05-02T00:40:00Z,30.2513,-88.0778,9.68,4.11,127.1,-9999.0,'11111222,11111222,99999222' 
DISL,ioos:station:DISL:DISL:1,2019-05-02T01:40:00Z,30.2513,-88.0778,9.68,4.08,133.5,-9999.0,'11111222,11111222,99999222' 
DISL,ioos:station:DISL:DISL:1,2019-05-02T02:40:00Z,30.2513,-88.0778,9.68,4.74,139.4,-9999.0,'11111222,11111222,99999222' 
DISL,ioos:station:DISL:DISL:1,2019-05-02T03:40:00Z,30.2513,-88.0778,9.68,4.12,144.6,-9999.0,'11111222,11111222,99999222' 
DISL,ioos:station:DISL:DISL:1,2019-05-02T05:10:00Z,30.2513,-88.0778,9.68,1.57,158.5,-9999.0,'11111222,11111222,99999222' 
DISL,ioos:station:DISL:DISL:1,2019-05-02T05:40:00Z,30.2513,-88.0778,9.68,2.34,152.5,-9999.0,'11111222,11111222,99999222' 
DISL,ioos:station:DISL:DISL:1,2019-05-02T06:40:00Z,30.2513,-88.0778,9.68,1.61,133.7,-9999.0,'11111222,11111222,99999222' 
DISL,ioos:station:DISL:DISL:1,2019-05-02T07:40:00Z,30.2513,-88.0778,9.68,2.16,105.2,-9999.0,'11111222,11111222,99999222' 
DISL,ioos:station:DISL:DISL:1,2019-05-02T09:00:00Z,30.2513,-88.0778,9.68,2.55,66.77,-9999.0,'11111222,11111222,99999222' 
DISL,ioos:station:DISL:DISL:1,2019-05-02T10:10:00Z,30.2513,-88.0778,9.68,5.1,95.9,-9999.0,'11111222,11111222,99999222' 
DISL,ioos:station:DISL:DISL:1,2019-05-02T11:10:00Z,30.2513,-88.0778,9.68,4.26,88.2,-9999.0,'11111222,11111222,99999222' 
DISL,ioos:station:DISL:DISL:1,2019-05-02T12:10:00Z,30.2513,-88.0778,9.68,4.76,91.5,-9999.0,'11111222,11111222,99999222' 
DISL,ioos:station:DISL:DISL:1,2019-05-02T13:10:00Z,30.2513,-88.0778,9.68,5.64,101.0,-9999.0,'11111222,11111222,99999222' 
DISL,ioos:station:DISL:DISL:1,2019-05-02T14:10:00Z,30.2513,-88.0778,9.68,7.85,112.0,-9999.0,'11111222,11111222,99999222' 
DISL,ioos:station:DISL:DISL:1,2019-05-02T15:10:00Z,30.2513,-88.0778,9.68,6.55,121.6,-9999.0,'11111222,11111222,99999222' 
DISL,ioos:station:DISL:DISL:1,2019-05-02T16:10:00Z,30.2513,-88.0778,9.68,5.67,119.2,-9999.0,'11111222,11111222,99999222' 
DISL,ioos:station:DISL:DISL:1,2019-05-02T17:10:00Z,30.2513,-88.0778,9.68,4.6,124.4,-9999.0,'11111222,11111222,99999222' 
DISL,ioos:station:DISL:DISL:1,2019-05-02T18:10:00Z,30.2513,-88.0778,9.68,3.77,118.8,-9999.0,'11111222,11111222,99999222' 
DISL,ioos:station:DISL:DISL:1,2019-05-02T19:10:00Z,30.2513,-88.0778,9.68,4.15,117.0,-9999.0,'11111222,11111222,99999222' 
DISL,ioos:station:DISL:DISL:1,2019-05-02T20:10:00Z,30.2513,-88.0778,9.68,3.86,125.9,-9999.0,'11111222,11111222,99999222' 
DISL,ioos:station:DISL:DISL:1,2019-05-02T21:10:00Z,30.2513,-88.0778,9.68,4.32,138.7,-9999.0,'11111222,11111222,99999222' 
DISL,ioos:station:DISL:DISL:1,2019-05-02T22:10:00Z,30.2513,-88.0778,9.68,4.71,129.7,-9999.0,'11111222,11111222,99999222' 
DISL,ioos:station:DISL:DISL:1,2019-05-02T23:10:00Z,30.2513,-88.0778,9.68,3.32,142.6,-9999.0,'11111222,11111222,99999222' 
DISL,ioos:station:DISL:DISL:1,2019-05-02T23:40:00Z,30.2513,-88.0778,9.68,2.41,170.7,-9999.0,'11111222,11111222,99999222' 
DISL,ioos:station:DISL:DISL:1,2019-05-03T01:10:00Z,30.2513,-88.0778,9.68,1.59,171.6,-9999.0,'11111222,11111222,99999222' 
DISL,ioos:station:DISL:DISL:1,2019-05-03T02:10:00Z,30.2513,-88.0778,9.68,3.01,149.2,-9999.0,'11111222,11111222,99999222' 
DISL,ioos:station:DISL:DISL:1,2019-05-03T03:10:00Z,30.2513,-88.0778,9.68,1.65,155.8,-9999.0,'11111222,11111222,99999222' 
DISL,ioos:station:DISL:DISL:1,2019-05-03T03:40:00Z,30.2513,-88.0778,9.68,0.65,266.6,-9999.0,'11111222,11111222,99999222' 
DISL,ioos:station:DISL:DISL:1,2019-05-03T05:10:00Z,30.2513,-88.0778,9.68,0.35,261.8,-9999.0,'11111222,11111222,99999222' 
DISL,ioos:station:DISL:DISL:1,2019-05-03T06:10:00Z,30.2513,-88.0778,9.68,0.61,288.8,-9999.0,'11111222,11111222,99999222' 
DISL,ioos:station:DISL:DISL:1,2019-05-03T07:10:00Z,30.2513,-88.0778,9.68,0.12,277.9,-9999.0,'11111222,11111222,99999222' 
DISL,ioos:station:DISL:DISL:1,2019-05-03T08:10:00Z,30.2513,-88.0778,9.68,0.35,110.0,-9999.0,'11111222,11111222,99999222' 
DISL,ioos:station:DISL:DISL:1,2019-05-03T09:10:00Z,30.2513,-88.0778,9.68,0.47,171.0,-9999.0,'11111222,11111222,99999222' 
DISL,ioos:station:DISL:DISL:1,2019-05-03T10:10:00Z,30.2513,-88.0778,9.68,0.7,256.6,-9999.0,'11111222,11111222,99999222' 
DISL,ioos:station:DISL:DISL:1,2019-05-03T11:10:00Z,30.2513,-88.0778,9.68,0.15,64.75,-9999.0,'11111222,11111222,99999222' 
DISL,ioos:station:DISL:DISL:1,2019-05-03T12:10:00Z,30.2513,-88.0778,9.68,3.28,47.75,-9999.0,'11111222,11111222,99999222' 
DISL,ioos:station:DISL:DISL:1,2019-05-03T13:10:00Z,30.2513,-88.0778,9.68,3.74,58.43,-9999.0,'11111222,11111222,99999222' 
DISL,ioos:station:DISL:DISL:1,2019-05-03T14:10:00Z,30.2513,-88.0778,9.68,3.45,36.0,-9999.0,'11111222,11111222,99999222' 
DISL,ioos:station:DISL:DISL:1,2019-05-03T15:10:00Z,30.2513,-88.0778,9.68,2.91,36.1,-9999.0,'11111222,11111222,99999222' 
DISL,ioos:station:DISL:DISL:1,2019-05-03T16:10:00Z,30.2513,-88.0778,9.68,2.94,67.11,-9999.0,'11111222,11111222,99999222' 
DISL,ioos:station:DISL:DISL:1,2019-05-03T17:10:00Z,30.2513,-88.0778,9.68,2.33,113.4,-9999.0,'11111222,11111222,99999222' 
DISL,ioos:station:DISL:DISL:1,2019-05-03T18:10:00Z,30.2513,-88.0778,9.68,3.01,157.8,-9999.0,'11111222,11111222,99999222' 
DISL,ioos:station:DISL:DISL:1,2019-05-03T19:10:00Z,30.2513,-88.0778,9.68,3.91,164.3,-9999.0,'11111222,11111222,99999222' 
DISL,ioos:station:DISL:DISL:1,2019-05-03T20:10:00Z,30.2513,-88.0778,9.68,3.11,156.4,-9999.0,'11111222,11111222,99999222' 
DISL,ioos:station:DISL:DISL:1,2019-05-03T21:10:00Z,30.2513,-88.0778,9.68,3.0,157.6,-9999.0,'11111222,11111222,99999222' 
DISL,ioos:station:DISL:DISL:1,2019-05-03T22:10:00Z,30.2513,-88.0778,9.68,2.49,203.5,-9999.0,'11111222,11111222,99999222' 
DISL,ioos:station:DISL:DISL:1,2019-05-03T23:10:00Z,30.2513,-88.0778,9.68,2.55,202.9,-9999.0,'11111222,11111222,99999222' 
DISL,ioos:station:DISL:DISL:1,2019-05-03T23:40:00Z,30.2513,-88.0778,9.68,1.95,201.4,-9999.0,'11111222,11111222,99999222' 
DISL,ioos:station:DISL:DISL:1,2019-05-04T00:40:00Z,30.2513,-88.0778,9.68,2.2,186.1,-9999.0,'11111222,11111222,99999222' 
DISL,ioos:station:DISL:DISL:1,2019-05-04T01:40:00Z,30.2513,-88.0778,9.68,2.0,172.4,-9999.0,'11111222,11111222,99999222' 
DISL,ioos:station:DISL:DISL:1,2019-05-04T02:40:00Z,30.2513,-88.0778,9.68,2.31,155.6,-9999.0,'11111222,11111222,99999222' 
DISL,ioos:station:DISL:DISL:1,2019-05-04T04:10:00Z,30.2513,-88.0778,9.68,4.67,142.3,-9999.0,'11111222,11111222,99999222' 
DISL,ioos:station:DISL:DISL:1,2019-05-04T05:10:00Z,30.2513,-88.0778,9.68,4.0,147.3,-9999.0,'11111222,11111222,99999222' 
DISL,ioos:station:DISL:DISL:1,2019-05-04T05:40:00Z,30.2513,-88.0778,9.68,4.2,150.1,-9999.0,'11111222,11111222,99999222' 
DISL,ioos:station:DISL:DISL:1,2019-05-04T07:10:00Z,30.2513,-88.0778,9.68,2.83,175.6,-9999.0,'11111222,11111222,99999222' 
DISL,ioos:station:DISL:DISL:1,2019-05-04T08:10:00Z,30.2513,-88.0778,9.68,2.28,201.2,-9999.0,'11111222,11111222,99999222' 
DISL,ioos:station:DISL:DISL:1,2019-05-04T09:10:00Z,30.2513,-88.0778,9.68,2.13,188.3,-9999.0,'11111222,11111222,99999222' 
DISL,ioos:station:DISL:DISL:1,2019-05-04T10:10:00Z,30.2513,-88.0778,9.68,2.34,189.4,-9999.0,'11111222,11111222,99999222' 
DISL,ioos:station:DISL:DISL:1,2019-05-04T11:10:00Z,30.2513,-88.0778,9.68,2.36,198.1,-9999.0,'11111222,11111222,99999222' 
DISL,ioos:station:DISL:DISL:1,2019-05-04T12:10:00Z,30.2513,-88.0778,9.68,2.91,181.7,-9999.0,'11111222,11111222,99999222' 
DISL,ioos:station:DISL:DISL:1,2019-05-04T13:10:00Z,30.2513,-88.0778,9.68,2.64,188.7,-9999.0,'11111222,11111222,99999222' 
DISL,ioos:station:DISL:DISL:1,2019-05-04T14:10:00Z,30.2513,-88.0778,9.68,2.99,179.0,-9999.0,'11111222,11111222,99999222' 
DISL,ioos:station:DISL:DISL:1,2019-05-04T15:10:00Z,30.2513,-88.0778,9.68,3.6,177.4,-9999.0,'11111222,11111222,99999222' 
DISL,ioos:station:DISL:DISL:1,2019-05-04T16:10:00Z,30.2513,-88.0778,9.68,4.32,158.9,-9999.0,'11111222,11111222,99999222' 
DISL,ioos:station:DISL:DISL:1,2019-05-04T17:10:00Z,30.2513,-88.0778,9.68,4.43,152.2,-9999.0,'11111222,11111222,99999222' 
DISL,ioos:station:DISL:DISL:1,2019-05-04T18:10:00Z,30.2513,-88.0778,9.68,6.02,160.2,-9999.0,'11111222,11111222,99999222' 
DISL,ioos:station:DISL:DISL:1,2019-05-04T19:10:00Z,30.2513,-88.0778,9.68,6.78,202.4,-9999.0,'11111222,11111222,99999222' 
DISL,ioos:station:DISL:DISL:1,2019-05-04T20:10:00Z,30.2513,-88.0778,9.68,2.63,232.7,-9999.0,'11111222,11111222,99999222' 
DISL,ioos:station:DISL:DISL:1,2019-05-04T21:10:00Z,30.2513,-88.0778,9.68,2.81,225.4,-9999.0,'11111222,11111222,99999222' 
DISL,ioos:station:DISL:DISL:1,2019-05-04T22:10:00Z,30.2513,-88.0778,9.68,3.48,205.1,-9999.0,'11111222,11111222,99999222' 
DISL,ioos:station:DISL:DISL:1,2019-05-04T23:10:00Z,30.2513,-88.0778,9.68,3.27,216.6,-9999.0,'11111222,11111222,99999222' 
DISL,ioos:station:DISL:DISL:1,2019-05-04T23:40:00Z,30.2513,-88.0778,9.68,3.5,220.9,-9999.0,'11111222,11111222,99999222' 
DISL,ioos:station:DISL:DISL:1,2019-05-05T00:40:00Z,30.2513,-88.0778,9.68,3.6,219.2,-9999.0,'11111222,11111222,99999222' 
DISL,ioos:station:DISL:DISL:1,2019-05-05T01:40:00Z,30.2513,-88.0778,9.68,2.57,245.4,-9999.0,'11111222,11111222,99999222' 
DISL,ioos:station:DISL:DISL:1,2019-05-05T02:40:00Z,30.2513,-88.0778,9.68,2.83,258.9,-9999.0,'11111222,11111222,99999222' 
DISL,ioos:station:DISL:DISL:1,2019-05-05T03:40:00Z,30.2513,-88.0778,9.68,3.13,251.6,-9999.0,'11111222,11111222,99999222' 
DISL,ioos:station:DISL:DISL:1,2019-05-05T05:10:00Z,30.2513,-88.0778,9.68,4.21,265.1,-9999.0,'11111222,11111222,99999222' 
DISL,ioos:station:DISL:DISL:1,2019-05-05T05:40:00Z,30.2513,-88.0778,9.68,3.31,255.2,-9999.0,'11111222,11111222,99999222' 
DISL,ioos:station:DISL:DISL:1,2019-05-05T07:10:00Z,30.2513,-88.0778,9.68,5.45,285.8,-9999.0,'11111222,11111222,99999222' 
DISL,ioos:station:DISL:DISL:1,2019-05-05T08:10:00Z,30.2513,-88.0778,9.68,5.8,299.4,-9999.0,'11111222,11111222,99999222' 
DISL,ioos:station:DISL:DISL:1,2019-05-05T09:10:00Z,30.2513,-88.0778,9.68,5.64,305.2,-9999.0,'11111222,11111222,99999222' 
DISL,ioos:station:DISL:DISL:1,2019-05-05T10:10:00Z,30.2513,-88.0778,9.68,7.42,318.9,-9999.0,'11111222,11111222,99999222' 
DISL,ioos:station:DISL:DISL:1,2019-05-05T11:10:00Z,30.2513,-88.0778,9.68,5.93,309.9,-9999.0,'11111222,11111222,99999222' 
DISL,ioos:station:DISL:DISL:1,2019-05-05T12:10:00Z,30.2513,-88.0778,9.68,6.24,315.8,-9999.0,'11111222,11111222,99999222' 
DISL,ioos:station:DISL:DISL:1,2019-05-05T13:10:00Z,30.2513,-88.0778,9.68,4.9,321.1,-9999.0,'11111222,11111222,99999222' 
DISL,ioos:station:DISL:DISL:1,2019-05-05T14:10:00Z,30.2513,-88.0778,9.68,3.79,322.5,-9999.0,'11111222,11111222,99999222' 
DISL,ioos:station:DISL:DISL:1,2019-05-05T15:10:00Z,30.2513,-88.0778,9.68,2.82,335.8,-9999.0,'11111222,11111222,99999222' 
DISL,ioos:station:DISL:DISL:1,2019-05-05T16:10:00Z,30.2513,-88.0778,9.68,2.45,315.7,-9999.0,'11111222,11111222,99999222' 
DISL,ioos:station:DISL:DISL:1,2019-05-05T17:10:00Z,30.2513,-88.0778,9.68,2.51,314.9,-9999.0,'11111222,11111222,99999222' 
DISL,ioos:station:DISL:DISL:1,2019-05-05T18:10:00Z,30.2513,-88.0778,9.68,2.54,296.5,-9999.0,'11111222,11111222,99999222' 
DISL,ioos:station:DISL:DISL:1,2019-05-05T19:10:00Z,30.2513,-88.0778,9.68,1.9,295.1,-9999.0,'11111222,11111222,99999222' 
DISL,ioos:station:DISL:DISL:1,2019-05-05T20:10:00Z,30.2513,-88.0778,9.68,1.7,73.38,-9999.0,'11111222,11111222,99999222' 
DISL,ioos:station:DISL:DISL:1,2019-05-05T21:10:00Z,30.2513,-88.0778,9.68,2.29,48.74,-9999.0,'11111222,11111222,99999222' 
DISL,ioos:station:DISL:DISL:1,2019-05-05T22:10:00Z,30.2513,-88.0778,9.68,5.72,25.46,-9999.0,'11111222,11111222,99999222' 
DISL,ioos:station:DISL:DISL:1,2019-05-05T23:10:00Z,30.2513,-88.0778,9.68,5.66,34.53,-9999.0,'11111222,11111222,99999222' 
DISL,ioos:station:DISL:DISL:1,2019-05-05T23:40:00Z,30.2513,-88.0778,9.68,6.02,35.98,-9999.0,'11111222,11111222,99999222' 
DISL,ioos:station:DISL:DISL:1,2019-05-06T00:40:00Z,30.2513,-88.0778,9.68,5.27,30.3,-9999.0,'11111222,11111222,99999222' 
DISL,ioos:station:DISL:DISL:1,2019-05-06T01:40:00Z,30.2513,-88.0778,9.68,4.43,35.83,-9999.0,'11111222,11111222,99999222' 
DISL,ioos:station:DISL:DISL:1,2019-05-06T02:40:00Z,30.2513,-88.0778,9.68,3.8,43.49,-9999.0,'11111222,11111222,99999222' 
DISL,ioos:station:DISL:DISL:1,2019-05-06T03:40:00Z,30.2513,-88.0778,9.68,4.41,36.49,-9999.0,'11111222,11111222,99999222' 
DISL,ioos:station:DISL:DISL:1,2019-05-06T04:40:00Z,30.2513,-88.0778,9.68,4.99,39.51,-9999.0,'11111222,11111222,99999222' 
DISL,ioos:station:DISL:DISL:1,2019-05-06T05:40:00Z,30.2513,-88.0778,9.68,4.73,22.11,-9999.0,'11111222,11111222,99999222' 
DISL,ioos:station:DISL:DISL:1,2019-05-06T06:40:00Z,30.2513,-88.0778,9.68,3.44,39.41,-9999.0,'11111222,11111222,99999222' 
DISL,ioos:station:DISL:DISL:1,2019-05-06T07:40:00Z,30.2513,-88.0778,9.68,3.21,51.68,-9999.0,'11111222,11111222,99999222' 
DISL,ioos:station:DISL:DISL:1,2019-05-06T08:40:00Z,30.2513,-88.0778,9.68,3.25,60.71,-9999.0,'11111222,11111222,99999222' 
DISL,ioos:station:DISL:DISL:1,2019-05-06T09:40:00Z,30.2513,-88.0778,9.68,4.82,48.96,-9999.0,'11111222,11111222,99999222' 
DISL,ioos:station:DISL:DISL:1,2019-05-06T10:40:00Z,30.2513,-88.0778,9.68,5.68,48.88,-9999.0,'11111222,11111222,99999222' 
DISL,ioos:station:DISL:DISL:1,2019-05-06T11:40:00Z,30.2513,-88.0778,9.68,5.79,43.16,-9999.0,'11111222,11111222,99999222' 
DISL,ioos:station:DISL:DISL:1,2019-05-06T12:40:00Z,30.2513,-88.0778,9.68,5.69,39.34,-9999.0,'11111222,11111222,99999222' 
DISL,ioos:station:DISL:DISL:1,2019-05-06T13:40:00Z,30.2513,-88.0778,9.68,4.21,38.34,-9999.0,'11111222,11111222,99999222' 
DISL,ioos:station:DISL:DISL:1,2019-05-06T15:10:00Z,30.2513,-88.0778,9.68,3.65,25.43,-9999.0,'11111222,11111222,99999222' 
DISL,ioos:station:DISL:DISL:1,2019-05-06T16:10:00Z,30.2513,-88.0778,9.68,3.67,10.75,-9999.0,'11111222,11111222,99999222' 
DISL,ioos:station:DISL:DISL:1,2019-05-06T17:10:00Z,30.2513,-88.0778,9.68,3.52,4.859,-9999.0,'11111222,11111222,99999222' 
DISL,ioos:station:DISL:DISL:1,2019-05-06T18:10:00Z,30.2513,-88.0778,9.68,2.92,80.1,-9999.0,'11111222,11111222,99999222' 
DISL,ioos:station:DISL:DISL:1,2019-05-06T19:10:00Z,30.2513,-88.0778,9.68,2.04,108.8,-9999.0,'11111222,11111222,99999222' 
DISL,ioos:station:DISL:DISL:1,2019-05-06T20:10:00Z,30.2513,-88.0778,9.68,1.59,108.4,-9999.0,'11111222,11111222,99999222' 
DISL,ioos:station:DISL:DISL:1,2019-05-06T21:10:00Z,30.2513,-88.0778,9.68,2.9,178.9,-9999.0,'11111222,11111222,99999222' 
DISL,ioos:station:DISL:DISL:1,2019-05-06T22:10:00Z,30.2513,-88.0778,9.68,2.73,177.2,-9999.0,'11111222,11111222,99999222' 
DISL,ioos:station:DISL:DISL:1,2019-05-06T23:10:00Z,30.2513,-88.0778,9.68,1.47,206.2,-9999.0,'11111222,11111222,99999222' 
DISL,ioos:station:DISL:DISL:1,2019-05-06T23:40:00Z,30.2513,-88.0778,9.68,1.78,224.4,-9999.0,'11111222,11111222,99999222' 
DISL,ioos:station:DISL:DISL:1,2019-05-07T00:40:00Z,30.2513,-88.0778,9.68,1.84,232.3,-9999.0,'11111222,11111222,99999222' 
DISL,ioos:station:DISL:DISL:1,2019-05-07T01:40:00Z,30.2513,-88.0778,9.68,1.87,231.0,-9999.0,'11111222,11111222,99999222' 
DISL,ioos:station:DISL:DISL:1,2019-05-07T02:40:00Z,30.2513,-88.0778,9.68,0.58,285.2,-9999.0,'11111222,11111222,99999222' 
DISL,ioos:station:DISL:DISL:1,2019-05-07T03:40:00Z,30.2513,-88.0778,9.68,0.76,289.5,-9999.0,'11111222,11111222,99999222' 
DISL,ioos:station:DISL:DISL:1,2019-05-07T04:40:00Z,30.2513,-88.0778,9.68,2.28,332.8,-9999.0,'11111222,11111222,99999222' 
DISL,ioos:station:DISL:DISL:1,2019-05-07T05:40:00Z,30.2513,-88.0778,9.68,0.21,241.2,-9999.0,'11111222,11111222,99999222' 
DISL,ioos:station:DISL:DISL:1,2019-05-07T06:40:00Z,30.2513,-88.0778,9.68,1.92,23.6,-9999.0,'11111222,11111222,99999222' 
DISL,ioos:station:DISL:DISL:1,2019-05-07T07:40:00Z,30.2513,-88.0778,9.68,1.68,22.73,-9999.0,'11111222,11111222,99999222' 
DISL,ioos:station:DISL:DISL:1,2019-05-07T08:40:00Z,30.2513,-88.0778,9.68,2.49,318.7,-9999.0,'11111222,11111222,99999222' 
DISL,ioos:station:DISL:DISL:1,2019-05-07T09:40:00Z,30.2513,-88.0778,9.68,2.86,15.97,-9999.0,'11111222,11111222,99999222' 
DISL,ioos:station:DISL:DISL:1,2019-05-07T11:10:00Z,30.2513,-88.0778,9.68,3.27,354.5,-9999.0,'11111222,11111222,99999222' 
DISL,ioos:station:DISL:DISL:1,2019-05-07T11:40:00Z,30.2513,-88.0778,9.68,2.45,26.96,-9999.0,'11111222,11111222,99999222' 
DISL,ioos:station:DISL:DISL:1,2019-05-07T13:10:00Z,30.2513,-88.0778,9.68,2.02,45.92,-9999.0,'11111222,11111222,99999222' 
DISL,ioos:station:DISL:DISL:1,2019-05-07T14:10:00Z,30.2513,-88.0778,9.68,1.19,81.3,-9999.0,'11111222,11111222,99999222' 
DISL,ioos:station:DISL:DISL:1,2019-05-07T15:10:00Z,30.2513,-88.0778,9.68,2.37,46.97,-9999.0,'11111222,11111222,99999222' 
DISL,ioos:station:DISL:DISL:1,2019-05-07T16:10:00Z,30.2513,-88.0778,9.68,1.94,73.37,-9999.0,'11111222,11111222,99999222' 
DISL,ioos:station:DISL:DISL:1,2019-05-07T19:10:00Z,30.2513,-88.0778,9.68,2.09,132.6,-9999.0,'11111222,11111222,99999222' 
DISL,ioos:station:DISL:DISL:1,2019-05-07T20:10:00Z,30.2513,-88.0778,9.68,3.03,135.3,-9999.0,'11111222,11111222,99999222' 
DISL,ioos:station:DISL:DISL:1,2019-05-07T21:10:00Z,30.2513,-88.0778,9.68,3.22,136.7,-9999.0,'11111222,11111222,99999222' 
DISL,ioos:station:DISL:DISL:1,2019-05-07T22:10:00Z,30.2513,-88.0778,9.68,4.45,153.9,-9999.0,'11111222,11111222,99999222' 
DISL,ioos:station:DISL:DISL:1,2019-05-07T23:10:00Z,30.2513,-88.0778,9.68,4.04,142.7,-9999.0,'11111222,11111222,99999222' 
DISL,ioos:station:DISL:DISL:1,2019-05-07T23:40:00Z,30.2513,-88.0778,9.68,3.01,160.3,-9999.0,'11111222,11111222,99999222' 
DISL,ioos:station:DISL:DISL:1,2019-05-08T00:40:00Z,30.2513,-88.0778,9.68,2.69,164.2,-9999.0,'11111222,11111222,99999222' 
DISL,ioos:station:DISL:DISL:1,2019-05-08T01:40:00Z,30.2513,-88.0778,9.68,2.46,168.5,-9999.0,'11111222,11111222,99999222' 
DISL,ioos:station:DISL:DISL:1,2019-05-08T02:40:00Z,30.2513,-88.0778,9.68,2.49,165.0,-9999.0,'11111222,11111222,99999222' 
DISL,ioos:station:DISL:DISL:1,2019-05-08T03:40:00Z,30.2513,-88.0778,9.68,3.09,157.5,-9999.0,'11111222,11111222,99999222' 
DISL,ioos:station:DISL:DISL:1,2019-05-08T04:30:00Z,30.2513,-88.0778,9.68,3.07,151.9,-9999.0,'11111222,11111222,99999222' 
DISL,ioos:station:DISL:DISL:1,2019-05-08T05:30:00Z,30.2513,-88.0778,9.68,3.75,145.5,-9999.0,'11111222,11111222,99999222' 
DISL,ioos:station:DISL:DISL:1,2019-05-08T06:30:00Z,30.2513,-88.0778,9.68,2.7,156.7,-9999.0,'11111222,11111222,99999222' 
DISL,ioos:station:DISL:DISL:1,2019-05-08T07:30:00Z,30.2513,-88.0778,9.68,1.72,157.8,-9999.0,'11111222,11111222,99999222' 
DISL,ioos:station:DISL:DISL:1,2019-05-08T08:30:00Z,30.2513,-88.0778,9.68,2.83,159.3,-9999.0,'11111222,11111222,99999222' 
DISL,ioos:station:DISL:DISL:1,2019-05-08T09:30:00Z,30.2513,-88.0778,9.68,4.13,141.5,-9999.0,'11111222,11111222,99999222' 
DISL,ioos:station:DISL:DISL:1,2019-05-08T10:30:00Z,30.2513,-88.0778,9.68,4.48,144.7,-9999.0,'11111222,11111222,99999222' 
DISL,ioos:station:DISL:DISL:1,2019-05-08T11:30:00Z,30.2513,-88.0778,9.68,4.46,134.4,-9999.0,'11111222,11111222,99999222' 
DISL,ioos:station:DISL:DISL:1,2019-05-08T12:30:00Z,30.2513,-88.0778,9.68,5.11,120.4,-9999.0,'11111222,11111222,99999222' 
DISL,ioos:station:DISL:DISL:1,2019-05-08T13:30:00Z,30.2513,-88.0778,9.68,6.11,124.3,-9999.0,'11111222,11111222,99999222' 
DISL,ioos:station:DISL:DISL:1,2019-05-08T14:30:00Z,30.2513,-88.0778,9.68,7.34,127.7,-9999.0,'11111222,11111222,99999222' 
DISL,ioos:station:DISL:DISL:1,2019-05-08T15:30:00Z,30.2513,-88.0778,9.68,7.52,126.8,-9999.0,'11111222,11111222,99999222' 
DISL,ioos:station:DISL:DISL:1,2019-05-08T16:30:00Z,30.2513,-88.0778,9.68,6.71,141.8,-9999.0,'11111222,11111222,99999222' 
DISL,ioos:station:DISL:DISL:1,2019-05-08T17:30:00Z,30.2513,-88.0778,9.68,5.4,138.9,-9999.0,'11111222,11111222,99999222' 
DISL,ioos:station:DISL:DISL:1,2019-05-08T18:30:00Z,30.2513,-88.0778,9.68,5.53,131.4,-9999.0,'11111222,11111222,99999222' 
DISL,ioos:station:DISL:DISL:1,2019-05-08T19:30:00Z,30.2513,-88.0778,9.68,4.89,137.2,-9999.0,'11111222,11111222,99999222' 
DISL,ioos:station:DISL:DISL:1,2019-05-08T20:30:00Z,30.2513,-88.0778,9.68,5.19,127.8,-9999.0,'11111222,11111222,99999222' 
DISL,ioos:station:DISL:DISL:1,2019-05-08T21:30:00Z,30.2513,-88.0778,9.68,5.8,134.8,-9999.0,'11111222,11111222,99999222' 
DISL,ioos:station:DISL:DISL:1,2019-05-08T22:30:00Z,30.2513,-88.0778,9.68,4.97,140.5,-9999.0,'11111222,11111222,99999222' 
DISL,ioos:station:DISL:DISL:1,2019-05-08T23:30:00Z,30.2513,-88.0778,9.68,4.72,140.3,-9999.0,'11111222,11111222,99999222' 
DISL,ioos:station:DISL:DISL:1,2019-05-09T00:30:00Z,30.2513,-88.0778,9.68,5.75,136.4,-9999.0,'11111222,11111222,99999222' 
DISL,ioos:station:DISL:DISL:1,2019-05-09T01:30:00Z,30.2513,-88.0778,9.68,6.92,129.4,-9999.0,'11111222,11111222,99999222' 
DISL,ioos:station:DISL:DISL:1,2019-05-09T02:30:00Z,30.2513,-88.0778,9.68,6.33,135.4,-9999.0,'11111222,11111222,99999222' 
DISL,ioos:station:DISL:DISL:1,2019-05-09T03:30:00Z,30.2513,-88.0778,9.68,5.94,135.6,-9999.0,'11111222,11111222,99999222' 
DISL,ioos:station:DISL:DISL:1,2019-05-09T04:30:00Z,30.2513,-88.0778,9.68,5.81,131.6,-9999.0,'11111222,11111222,99999222' 
DISL,ioos:station:DISL:DISL:1,2019-05-09T05:30:00Z,30.2513,-88.0778,9.68,5.99,149.3,-9999.0,'11111222,11111222,99999222' 